Location: Unspecified
(0.0000°N, 0.0000°E)
Time: 17:40:04
(UTC+00:00)

KAITUO 1B - Pass Details

Date: 23 July 2019
Orbit: 497 x 515 km, 97.5° (Epoch: 07 December)

Event Time Altitude Azimuth Distance (km) Brightness Sun altitude
Rises 18:47:58 0° 202° (SSW) 2,599 ? -9.7°
Reaches altitude 10° 18:51:05 10° 231° (SW) 1,707 ? -10.5°
Maximum altitude 18:52:44 13° 258° (WSW) 1,542 ? -10.8°
Drops below altitude 10° 18:54:23 10° 285° (WNW) 1,699 ? -11.2°
Sets 18:57:28 0° 315° (NW) 2,574 ? -12.0°
